O3B FM9 (40351 NORAD) Tracking and Keplerian Element Data

This shows tracking and keplerian element data for the satellite.

Feedback or suggestion? Click here.




ElementValue
Catalog40351
NameO3B FM9
Epoch Orbit9461
Epoch Day52.2889943
Epoch Year2020
RAAN4.6774
Inclination0.0387
Eccentricity0.0002571
Argument of Perigee326.3984
Mean Anonmoly28.9025
Mean Motion5.00115254
Decay Rate-3.2E-07
L11 40351U 14083D 20052.28899430 -.00000032 00000-0 00000-0 0 9997
L22 40351 0.0387 4.6774 0002571 326.3984 28.9025 5.00115254 94610

Live tracking and technical data element details for O3B FM9 (NORAD 40351). O3B FM9 can be tracked NOW for your location showing map with azimuth and elevation plus other details from your city location.

Track the satellite on the map from your city or location and see movement details for azimuth, elevation, latitude, longitude, range, height, and movement on the map or in text.







IsCatalogInMostPopularTable: catalog: 40351, numindb: 388
Update: records affected: 1



GetName: 40351 O3B FM9

Hit Count: updated at: Sun, 23 Feb 2020 07:37:58 GMT